Location: ?????
(32.7281°N, 34.9563°E)
Time: 18:49:46
(UTC+00:00)

NOAA 11 - Pass Details

Date: 29 October 2020
Orbit: 833 x 849 km, 98.4° (Epoch: 30 November)

Event Time Altitude Azimuth Distance (km) Brightness Sun altitude
Rises 15:32:37 0° 163° (SSE) 3,382 7.3 -9.2°
Reaches altitude 10° 15:34:58 10° 162° (SSE) 2,449 6.5 -9.7°
Maximum altitude 15:40:24 79° 76° (ENE) 857 4.1 -10.8°
Drops below altitude 10° 15:45:50 10° 350° (N) 2,452 6.6 -11.9°
Sets 15:48:11 0° 350° (N) 3,388 7.4 -12.4°
